Flag for Italy Weather past 2 weeks in Venice, Italy

Now
45 °F

Fog.


Feels Like: 45 °F
Forecast: 41 / 51 °F
Wind: 1 mph from North

Location: Venice / Tessera

Current Time: Dec 19, 2014 at 7:35:29 AM

Latest Report: Dec 19, 2014 at 6:50 AM


Visibility: 0 mi

Pressure: 30.21 "Hg

Humidity: 93%

Dew point: 43 °F

Location of VeniceLocation

Historic Weather in Venice — Graph

°F

Venice temperature yesterday

Maximum temperature yesterday: 55 °F (at 1:20 PM)
Minimum temperature yesterday: 45 °F (at 8:20 AM)
Average temperature yesterday: 49 °F

Past Weeks' High & Low Weather Summary

 TemperatureHumidityPressure
High57 °F (Dec 17, 11:50 AM)100% (Dec 16, 6:20 AM)30.24 "Hg (Dec 16, 6:20 AM)
Low32 °F (Dec 12, 4:50 AM)32% (Dec 10, 1:20 PM)29.77 "Hg (Dec 16, 8:20 PM)
Average46 °F78%30.05 "Hg
* Reported Dec 4 6:20 AM — Dec 19 6:20 AM, Venice, Weather by CustomWeather, © 2014

Note: Actual official high and low records may vary slightly from our data, if they occured in-between our weather recording intervals... More about our weather records

Advertising

Venice weather history for previous 24 hours

 ConditionsComfort  
Time TempWeatherWind HumidityBarometerVisibility
6:20 AM
Dec 19
45 °FFog.2 mph93%30.18 "Hg1 mi
5:50 AM45 °FFog.5 mph93%30.18 "Hg0 mi
5:20 AM45 °FFog.2 mph93%30.18 "Hg0 mi
4:50 AM45 °FFog.3 mph93%30.18 "Hg0 mi
4:20 AM45 °FFog.No wind93%30.18 "Hg0 mi
3:50 AM46 °FFog.No wind87%30.18 "Hg0 mi
3:20 AM45 °FFog.No wind93%30.18 "Hg0 mi
2:50 AM46 °FFog.3 mph93%30.18 "Hg0 mi
2:20 AM46 °FFog.2 mph93%30.18 "Hg0 mi
1:50 AM46 °FFog.2 mph93%30.18 "Hg0 mi
1:20 AM46 °FFog.1 mph93%30.18 "Hg0 mi
12:50 AM46 °FFog.3 mph93%30.18 "Hg0 mi
12:20 AM46 °FFog.1 mph93%30.18 "Hg0 mi
11:50 PM
Dec 18
46 °FFog.No wind93%30.18 "Hg0 mi
11:20 PM46 °FFog.3 mph93%30.18 "Hg0 mi
10:50 PM46 °FFog.2 mph93%30.18 "Hg0 mi
10:20 PM46 °FFog.2 mph93%30.18 "Hg1 mi
9:50 PM46 °FFog.5 mph87%30.18 "Hg1 mi
9:20 PM48 °FFog.5 mph87%30.18 "Hg2 mi
8:50 PM48 °FFog.6 mph94%30.18 "Hg2 mi
8:20 PM50 °FClear.2 mph88%30.18 "Hg4 mi
7:50 PM50 °FClear.5 mph88%30.15 "Hg5 mi
7:20 PM50 °FClear.6 mph88%30.15 "Hg10 mi
6:50 PM50 °FClear.3 mph82%30.15 "Hg10 mi
6:20 PM50 °FClear.2 mph88%30.15 "Hg10 mi
5:50 PM50 °FClear.3 mph82%30.15 "Hg10 mi
5:20 PM52 °FClear.5 mph77%30.15 "Hg10 mi
4:50 PM52 °FClear.3 mph77%30.15 "Hg10 mi
4:20 PM52 °FSunny.1 mph77%30.12 "Hg10 mi
3:50 PM52 °FSunny.No wind77%30.12 "Hg10 mi
3:20 PM52 °FPassing clouds.1 mph77%30.12 "HgN/A
2:50 PM54 °FSunny.3 mph72%30.12 "Hg10 mi
2:20 PM54 °FSunny.2 mph72%30.12 "Hg10 mi
1:50 PM55 °FSunny.2 mph67%30.12 "Hg10 mi
1:20 PM55 °FSunny.3 mph67%30.12 "Hg10 mi
12:50 PM54 °FSunny.3 mph72%30.12 "Hg10 mi
12:20 PM54 °FSunny.1 mph77%30.12 "Hg10 mi
11:50 AM52 °FScattered clouds.1 mph77%30.12 "HgN/A
11:20 AM52 °FPartly sunny.5 mph77%30.15 "HgN/A
10:50 AM50 °FSunny.3 mph82%30.12 "Hg10 mi
10:20 AM48 °FSunny.5 mph87%30.09 "Hg10 mi
9:50 AM48 °FScattered clouds.5 mph87%30.09 "HgN/A
9:20 AM46 °FSunny.6 mph93%30.09 "Hg10 mi
8:50 AM46 °FPassing clouds.6 mph87%30.07 "HgN/A
8:20 AM45 °FFog.3 mph87%30.07 "HgN/A
7:50 AM46 °FPassing clouds.2 mph87%30.07 "HgN/A
7:20 AM46 °FPassing clouds.1 mph87%30.04 "HgN/A
Weather by CustomWeather, © 2014

See weather overviewHow to use our weather pages